User: anonymous   Login
Location: Prairie State College
(41.5244°N, 87.6382°W)
Time: 02:58:12
(UTC-05:00)
Language:

Cosmos 1140 Rocket - Orbit

View from above orbital plane
View from above orbital plane
View from above satellite
View from above satellite

Ground track
Ground track

The orbit data is extracted from the following two-line orbital elements,

1 11574U 79089B   15243.71185232  .00000097  00000-0  38575-4 0  9993
2 11574  74.0718 348.8301 0015089  58.2316 302.0307 14.40493260882750
Epoch (UTC): 31 August 2015 17:05:04
Eccentricity: 0.0015089
inclination: 74.0718°
perigee height: 746 km
apogee height: 767 km
right ascension of ascending node: 348.8301°
argument of perigee: 58.2316°
revolutions per day: 14.40493260
mean anomaly at epoch: 302.0307°
orbit number at epoch: 88275

The dashed part of the orbit path shows where the satellite is in the earth's shadow,  

DLR